User: anonymous   Login
Location: Unspecified
(38.9820°N, 94.4650°W)
Time: 04:17:37
(UTC-06:00)
Language:

Hubble Space Telescope - Orbit

View from above orbital plane
View from above orbital plane
View from above satellite
View from above satellite

Ground track
Ground track

The orbit data is extracted from the following two-line orbital elements,

1 20580U 90037B   18347.71067130 +.00000448 +00000-0 +16395-4 0  9996
2 20580 028.4707 008.2640 0002407 273.5748 035.3993 15.09143887372521
Epoch (UTC): 13 December 2018 17:03:22
Eccentricity: 0.0002407
inclination: 28.4707°
perigee height: 537 km
apogee height: 540 km
right ascension of ascending node: 8.2640°
argument of perigee: 273.5748°
revolutions per day: 15.09143887
mean anomaly at epoch: 35.3993°
orbit number at epoch: 37252

The dashed part of the orbit path shows where the satellite is in the earth's shadow,  

DLR